Istrana, Italy

3:02 AM CEST on April 28, 2017 (GMT +0200)
Istrana Mil

Weather History for LIPS - April, 2014

Change the Weather History Date:

Thursday, April 17, 2014

  Actual Average Record
Temperature  
Mean Temperature 52 °F -  
Max Temperature 68 °F 68 °F 75 °F (2007)
Min Temperature 35 °F 49 °F 32 °F (1997)
Degree Days  
Heating Degree Days 14    
Growing Degree Days 2 (Base 50)    
Moisture  
Dew Point 24 °F    
Average Humidity 34    
Maximum Humidity 76    
Minimum Humidity 5    
Precipitation  
Precipitation 0.00 in 0.12 in - ()
Sea Level Pressure  
Sea Level Pressure 30.06 in    
Wind  
Wind Speed 4 mph ()    
Max Wind Speed 8 mph    
Max Gust Speed -    
Visibility 16.8 miles    
Events      
Averages and records for this station are not official NWS values.
T = Trace of Precipitation, MM = Missing Value Source: Averaged Metar Reports

Daily Weather History Graph

Daily Weather History Graph

Search for Another Location

Airport or City:

Trip Planner

Search our weather history database for the weather conditions in past years. The results will help you decide how hot, cold, wet, or windy it might be!

Date:

Astronomy

Apr. 17, 2014 Rise Set
Actual Time 6:22 AM CEST 8:00 PM CEST
Civil Twilight 5:51 AM CEST 8:31 PM CEST
Nautical Twilight 5:13 AM CEST 9:09 PM CEST
Astronomical Twilight 4:32 AM CEST 9:51 PM CEST
Moon 10:34 PM CEST (4/17) 7:36 AM CEST (4/17)
Length of Visible Light 14h 40m
Length of Day
13h 37m
Waning Gibbous, 95% of the Moon is Illuminated
Apr 17
Waning Gibbous
Apr 22
Last Quarter
Apr 29
New
May 7
First Quarter
May 14
Full

Hourly Weather History & Observations

Time (CEST) Temp. Windchill Dew Point Humidity Pressure Visibility Wind Dir Wind Speed Gust Speed Precip Events Conditions
12:00 AM 47 °F - 23 °F 26% 30.15 in 19 mi NNE 4.6 mph - -   Scattered Clouds
12:55 AM 46.4 °F 44.3 °F 26.6 °F 46% 30.12 in 6.2 mi NNE 4.6 mph - N/A   Partly Cloudy
1:00 AM 46 °F - 26 °F 32% 30.15 in 19 mi NNE 4.6 mph - -   Scattered Clouds
1:55 AM 44.6 °F - 26.6 °F 49% 30.15 in - Calm Calm - N/A   Clear
2:00 AM 45 °F - 27 °F 36% 30.16 in 19 mi Calm Calm - -  
2:55 AM 44.6 °F - 26.6 °F 49% 30.15 in - Calm Calm - N/A   Clear
3:00 AM 44 °F - 27 °F 39% 30.16 in 19 mi Calm Calm - -  
3:55 AM 39.2 °F - 28.4 °F 65% 30.12 in - NNE 2.3 mph - N/A   Clear
4:00 AM 39 °F - 28 °F 55% 30.15 in 19 mi NNE 2.3 mph - -  
4:55 AM 39.2 °F - 28.4 °F 65% 30.12 in - East 2.3 mph - N/A   Clear
5:00 AM 39 °F - 28 °F 55% 30.15 in 19 mi East 2.3 mph - -  
5:55 AM 37.4 °F 32.8 °F 26.6 °F 65% 30.12 in - NNW 5.8 mph - N/A   Clear
6:00 AM 37 °F - 27 °F 56% 30.15 in 25 mi NNW 5.8 mph - -  
6:55 AM 37.4 °F 33.8 °F 26.6 °F 65% 30.12 in - NNW 4.6 mph - N/A   Clear
7:00 AM 38 °F - 26 °F 51% 30.14 in 25 mi NNW 4.6 mph - -  
7:55 AM 41.0 °F 39.0 °F 28.4 °F 61% 30.12 in - NNW 3.5 mph - N/A   Clear
8:00 AM 42 °F - 29 °F 49% 30.14 in 25 mi NNW 3.5 mph - -  
8:55 AM 50.0 °F - 30.2 °F 47% 30.12 in - West 2.3 mph - N/A   Clear
9:00 AM 50 °F - 30 °F 33% 30.14 in 25 mi West 2.3 mph - -  
9:55 AM 55.4 °F - 26.6 °F 33% 30.12 in - West 4.6 mph - N/A   Clear
10:00 AM 55 °F - 27 °F 22% 30.14 in 25 mi West 4.6 mph - -  
10:55 AM 59.0 °F - 21.2 °F 23% 30.09 in - NW 5.8 mph - N/A   Clear
11:00 AM 59 °F - 21 °F 13% 30.12 in 25 mi NW 5.8 mph - -  
11:55 AM 60.8 °F - 19.4 °F 20% 30.09 in - WSW 6.9 mph - N/A   Clear
12:00 PM 61 °F - 19 °F 10% 30.10 in 25 mi WSW 6.9 mph - -  
12:55 PM 62.6 °F - 17.6 °F 18% 30.06 in - WSW 8.1 mph - N/A   Clear
1:00 PM 63 °F - 17 °F 8% 30.07 in 25 mi WSW 8.1 mph - -  
1:55 PM 66.2 °F - 17.6 °F 15% 30.01 in - WSW 8.1 mph - N/A   Clear
2:00 PM 66 °F - 17 °F 7% 30.03 in 25 mi WSW 8.1 mph - -  
2:55 PM 68.0 °F - 14.0 °F 12% 29.98 in - WSW 6.9 mph - N/A   Clear
3:00 PM 67 °F - 15 °F 6% 29.99 in 25 mi WSW 6.9 mph - -  
3:55 PM 68.0 °F - 15.8 °F 13% 29.95 in - West 5.8 mph - N/A   Clear
4:00 PM 68 °F - 15 °F 6% 29.97 in 25 mi West 5.8 mph - -  
4:55 PM 68.0 °F - 14.0 °F 12% 29.95 in - SW 5.8 mph - N/A   Clear
5:00 PM 68 °F - 13 °F 5% 29.96 in 25 mi SW 5.8 mph - -  
5:55 PM 66.2 °F - 14.0 °F 13% 29.95 in - SW 5.8 mph - N/A   Clear
6:00 PM 67 °F - 15 °F 6% 29.96 in 25 mi SW 5.8 mph - -  
6:55 PM 64.4 °F - 14.0 °F 14% 29.95 in - SW 6.9 mph - N/A   Clear
7:00 PM 65 °F - 15 °F 6% 29.95 in 19 mi SW 6.9 mph - -  
7:55 PM 60.8 °F - 21.2 °F 22% 29.95 in - SSW 4.6 mph - N/A   Clear
8:00 PM 61 °F - 22 °F 12% 29.95 in 19 mi SSW 4.6 mph - -  
8:55 PM 55.4 °F - 26.6 °F 33% 29.95 in - SSE 2.3 mph - N/A   Clear
9:00 PM 55 °F - 26 °F 21% 29.96 in 16 mi SSE 2.3 mph - -  
9:55 PM 51.8 °F - 39.2 °F 62% 29.98 in - SSE 5.8 mph - N/A   Clear
10:00 PM 52 °F - 38 °F 48% 29.98 in 16 mi SSE 5.8 mph - -  
10:55 PM 48.2 °F - 39.2 °F 71% 29.98 in - NNE 5.8 mph - N/A   Clear
11:00 PM 47 °F - 39 °F 67% 30.00 in 12 mi NNE 5.8 mph - -  
11:55 PM 46.4 °F 44.3 °F 39.2 °F 76% 29.98 in - NNE 4.6 mph - N/A   Clear